Weather reports worldwide

Advertisment
Meierwik, Germany (10033): temperature & dewpoint: 07.07.2020 05:00:00 - 13.07.2020 05:00:00 (CEST)Meierwik, Germany (10033): wind speed & gusts: 07.07.2020 05:00:00 - 13.07.2020 05:00:00 (CEST)Meierwik, Germany (10033): wind direction: 07.07.2020 05:00:00 - 13.07.2020 05:00:00 (CEST)Meierwik, Germany (10033): reduced air pressure: 07.07.2020 05:00:00 - 13.07.2020 05:00:00 (CEST)Meierwik, Germany (10033): visibility: 07.07.2020 05:00:00 - 13.07.2020 05:00:00 (CEST)
Date & Time tt [°C] td [°C] ff [km/h] ff [kn] fx [km/h] fx [kn] dd ppp [hPa] vv [km]
13.07.2020 05:00:00 10,3 9,6 14 8 - - W 1024,5 23
13.07.2020 04:00:00 10,4 9,5 14 8 - - W 1025,0 17
13.07.2020 03:00:00 10,7 9,8 14 8 - - W 1025,3 28
13.07.2020 02:00:00 10,9 10,0 14 8 - - W 1025,5 28
13.07.2020 01:00:00 11,9 10,4 14 8 - - W 1025,7 30
13.07.2020 00:00:00 12,7 10,7 18 10 - - W 1026,0 45
12.07.2020 23:00:00 13,7 10,8 18 10 - - W 1026,2 40
12.07.2020 22:00:00 14,7 10,8 22 12 - - WNW 1026,3 50
12.07.2020 21:00:00 15,8 10,5 25 14 - - NW 1025,9 45
12.07.2020 20:00:00 16,9 10,0 29 16 - - NW 1026,0 45
12.07.2020 19:00:00 17,4 9,7 36 19 47 25 WNW 1026,1 70
12.07.2020 18:00:00 18,7 10,2 36 19 54 29 NW 1026,2 30
12.07.2020 17:00:00 18,2 9,5 40 21 - - WNW 1026,3 30
12.07.2020 16:00:00 17,9 9,5 40 21 54 29 WNW 1026,5 45
12.07.2020 15:00:00 17,7 7,9 43 23 54 29 WNW 1026,5 40
12.07.2020 14:00:00 16,9 8,5 36 19 - - WNW 1026,5 50
12.07.2020 13:00:00 16,8 9,0 40 21 47 25 WNW 1026,4 50
12.07.2020 12:00:00 16,7 9,0 32 18 - - WNW 1026,4 30
12.07.2020 11:00:00 16,0 9,5 36 19 - - WNW 1026,2 40
12.07.2020 10:00:00 16,3 9,7 32 18 47 25 WNW 1025,9 25
12.07.2020 09:00:00 15,2 9,7 29 16 47 25 WNW 1025,6 11
12.07.2020 08:00:00 13,4 9,7 22 12 - - WNW 1025,2 22
12.07.2020 07:00:00 12,2 9,6 22 12 - - WNW 1024,8 35
12.07.2020 06:00:00 11,6 9,4 18 10 - - W 1024,6 30
12.07.2020 05:00:00 11,9 9,5 18 10 - - W 1024,4 35
12.07.2020 04:00:00 11,5 9,0 22 12 - - W 1024,2 30
12.07.2020 03:00:00 11,3 9,1 22 12 - - W 1024,3 29
12.07.2020 02:00:00 10,9 8,8 18 10 - - W 1024,4 30
12.07.2020 01:00:00 11,2 8,7 18 10 - - W 1024,5 35
12.07.2020 00:00:00 12,3 9,0 22 12 - - WNW 1024,3 35
11.07.2020 23:00:00 12,8 9,0 22 12 - - W 1024,1 40
11.07.2020 22:00:00 13,6 8,8 22 12 - - WNW 1023,6 45
11.07.2020 21:00:00 14,5 8,3 29 16 - - WNW 1023,3 40
11.07.2020 20:00:00 14,9 7,8 32 18 - - NW 1023,0 50
11.07.2020 19:00:00 16,8 8,3 32 18 47 25 WNW 1022,6 40
11.07.2020 18:00:00 17,1 7,4 36 19 50 27 WNW 1022,2 30
11.07.2020 17:00:00 16,4 8,7 32 18 - - WNW 1022,2 40
11.07.2020 16:00:00 16,0 9,6 40 21 54 29 WNW 1021,9 25
11.07.2020 15:00:00 16,7 8,9 43 23 58 31 WNW 1021,6 24
11.07.2020 14:00:00 16,7 9,5 40 21 - - WNW 1020,9 40
11.07.2020 13:00:00 17,1 9,9 40 21 54 29 WNW 1020,6 28
11.07.2020 12:00:00 14,9 9,1 40 21 58 31 WNW 1020,3 40
11.07.2020 11:00:00 15,1 9,6 36 19 - - NW 1019,7 50
11.07.2020 10:00:00 13,3 9,3 36 19 54 29 NW 1019,3 10
11.07.2020 09:00:00 14,7 9,6 36 19 47 25 W 1018,8 24
11.07.2020 08:00:00 13,1 8,9 22 12 - - W 1018,3 12
11.07.2020 07:00:00 12,0 8,5 22 12 - - W 1018,0 45
11.07.2020 06:00:00 11,4 8,8 18 10 - - W 1017,5 40
11.07.2020 05:00:00 11,3 8,8 22 12 - - W 1017,0 35
11.07.2020 04:00:00 11,4 8,8 22 12 - - W 1016,7 40
11.07.2020 03:00:00 12,0 9,5 25 14 - - WNW 1016,3 40
11.07.2020 02:00:00 11,9 9,2 29 16 - - WNW 1015,9 50
11.07.2020 01:00:00 12,1 8,6 29 16 - - W 1015,6 50
11.07.2020 00:00:00 12,1 8,4 25 14 - - W 1015,0 45
10.07.2020 23:00:00 12,7 8,4 32 18 - - WNW 1014,5 50
10.07.2020 22:00:00 13,0 8,4 29 16 - - NW 1013,8 45
10.07.2020 21:00:00 13,9 8,0 32 18 54 29 NW 1013,4 65
10.07.2020 20:00:00 14,5 8,5 43 23 - - WNW 1012,9 55
10.07.2020 19:00:00 14,8 8,0 40 21 54 29 WNW 1012,4 55
10.07.2020 18:00:00 15,3 9,2 43 23 54 29 WNW 1011,6 30
10.07.2020 17:00:00 15,2 10,3 40 21 - - NW 1011,0 50
10.07.2020 16:00:00 16,8 10,8 25 14 - - WNW 1010,1 45
10.07.2020 15:00:00 13,8 10,8 14 8 - - NW 1009,9 40
10.07.2020 14:00:00 12,2 9,2 7 4 - - NW 1009,8 24
10.07.2020 13:00:00 11,0 7,8 22 12 - - N 1009,6 6
10.07.2020 12:00:00 12,7 9,7 22 12 - - NNE 1008,7 40
10.07.2020 11:00:00 12,4 10,1 18 10 - - NNE 1008,6 10
10.07.2020 10:00:00 12,2 9,7 25 14 - - NE 1008,4 13
10.07.2020 09:00:00 12,3 10,2 18 10 - - NNE 1008,6 23
10.07.2020 08:00:00 11,8 10,4 14 8 - - ENE 1008,3 29
10.07.2020 07:00:00 11,4 10,0 14 8 - - ENE 1009,2 22
10.07.2020 06:00:00 12,0 9,3 14 8 - - ENE 1009,4 35
10.07.2020 05:00:00 11,4 10,0 14 8 - - ENE 1009,6 35
10.07.2020 04:00:00 10,6 9,2 14 8 - - NE 1010,0 40
10.07.2020 03:00:00 10,8 8,6 11 6 - - NNE 1010,6 40
10.07.2020 02:00:00 11,7 8,1 11 6 - - NNE 1011,0 50
10.07.2020 01:00:00 11,6 9,8 11 6 - - NNE 1011,3 35
10.07.2020 00:00:00 12,4 9,3 7 4 - - WNW 1011,5 45
09.07.2020 23:00:00 11,4 10,2 7 4 - - W 1011,3 30
09.07.2020 22:00:00 12,6 10,3 4 2 - - NW 1011,3 45
09.07.2020 21:00:00 13,7 10,3 4 2 - - SSW 1011,4 45
09.07.2020 20:00:00 15,9 7,9 4 2 - - N 1011,4 50
09.07.2020 19:00:00 16,2 7,2 4 2 - - ENE 1011,6 60
09.07.2020 18:00:00 16,3 8,6 11 6 - - N 1011,5 26
09.07.2020 17:00:00 15,5 8,1 7 4 - - ESE 1011,8 45
09.07.2020 16:00:00 15,1 7,7 11 6 - - E 1012,1 50
09.07.2020 15:00:00 14,4 9,1 7 4 - - SSE 1012,3 35
09.07.2020 14:00:00 14,0 9,6 7 4 - - ESE 1012,5 30
09.07.2020 13:00:00 14,2 8,7 7 4 - - SE 1012,9 28
09.07.2020 12:00:00 14,1 8,6 11 6 - - SE 1013,1 50
09.07.2020 11:00:00 13,6 8,9 7 4 - - S 1013,5 55
09.07.2020 10:00:00 13,8 9,1 7 4 - - N 1013,7 50
09.07.2020 09:00:00 13,3 9,3 7 4 - - N 1013,9 45
09.07.2020 08:00:00 11,9 9,7 4 2 - - SSE 1014,2 35
09.07.2020 07:00:00 9,9 8,8 4 2 - - NNW 1014,6 35
09.07.2020 06:00:00 8,9 8,0 4 2 - - WNW 1014,8 30
09.07.2020 05:00:00 8,8 7,9 7 4 - - WSW 1014,8 30
09.07.2020 04:00:00 8,8 7,9 7 4 - - W 1015,0 30
09.07.2020 03:00:00 8,9 8,0 7 4 - - W 1015,3 35
09.07.2020 02:00:00 9,3 8,2 11 6 - - W 1015,3 29
09.07.2020 01:00:00 9,3 8,2 14 8 - - W 1015,5 30
09.07.2020 00:00:00 10,0 8,4 14 8 - - W 1015,5 40
08.07.2020 23:00:00 11,1 8,4 18 10 - - W 1015,4 40
08.07.2020 22:00:00 12,9 8,2 22 12 - - WNW 1015,2 55
08.07.2020 21:00:00 13,9 7,9 29 16 - - WNW 1014,7 50
08.07.2020 20:00:00 14,3 8,0 25 14 - - WNW 1014,5 45
08.07.2020 19:00:00 15,5 8,0 29 16 47 25 NW 1014,3 35
08.07.2020 18:00:00 15,7 7,0 29 16 47 25 W 1014,3 55
08.07.2020 17:00:00 16,6 6,9 32 18 - - WNW 1014,2 30
08.07.2020 16:00:00 17,1 7,3 36 19 50 27 W 1014,1 27
08.07.2020 15:00:00 15,9 6,9 36 19 54 29 WNW 1014,0 45
08.07.2020 14:00:00 15,2 7,1 32 18 - - NW 1013,8 65
08.07.2020 13:00:00 15,3 6,7 32 18 50 27 NW 1013,5 30
08.07.2020 12:00:00 14,6 7,3 36 19 50 27 NW 1013,3 40
08.07.2020 11:00:00 14,4 8,0 29 16 - - WNW 1012,9 35
08.07.2020 10:00:00 13,6 8,8 25 14 - - WNW 1012,6 45
08.07.2020 09:00:00 13,6 8,7 25 14 - - W 1012,4 40
08.07.2020 08:00:00 12,0 8,5 18 10 - - W 1012,4 40
08.07.2020 07:00:00 11,2 8,4 14 8 - - NNW 1012,3 35
08.07.2020 06:00:00 11,3 8,1 22 12 - - W 1012,3 40
08.07.2020 05:00:00 11,3 8,7 22 12 - - W 1012,3 35
08.07.2020 04:00:00 11,1 8,8 22 12 - - W 1012,6 40
08.07.2020 03:00:00 11,3 8,2 22 12 - - W 1012,9 40
08.07.2020 02:00:00 11,8 8,6 22 12 - - W 1013,1 45
08.07.2020 01:00:00 11,4 8,9 18 10 - - W 1013,2 45
08.07.2020 00:00:00 11,5 9,0 18 10 - - W 1013,5 45
07.07.2020 23:00:00 11,6 9,2 29 16 - - W 1013,5 40
07.07.2020 22:00:00 11,9 9,2 25 14 - - WNW 1013,3 45
07.07.2020 21:00:00 12,9 9,8 25 14 47 25 NW 1013,4 1,4
07.07.2020 20:00:00 12,8 9,6 22 12 - - NW 1013,5 45
07.07.2020 19:00:00 14,3 9,3 29 16 - - WNW 1013,5 40
07.07.2020 18:00:00 14,0 10,3 25 14 50 27 W 1013,7 40
07.07.2020 17:00:00 13,6 9,4 50 27 - - WNW 1013,8 6
07.07.2020 16:00:00 16,3 9,2 43 23 54 29 W 1013,6 35
07.07.2020 15:00:00 15,4 12,4 18 10 - - WSW 1013,8 35
07.07.2020 14:00:00 13,1 11,8 25 14 - - W 1014,7 25
07.07.2020 13:00:00 14,7 10,5 22 12 58 31 WSW 1014,2 16
07.07.2020 12:00:00 15,0 10,2 22 12 50 27 WSW 1014,8 25
07.07.2020 11:00:00 15,0 7,5 29 16 - - WSW 1015,7 35
07.07.2020 10:00:00 15,6 8,3 32 18 54 29 W 1015,7 12
07.07.2020 09:00:00 14,4 8,6 40 21 50 27 W 1015,8 25
07.07.2020 08:00:00 13,8 8,8 40 21 - - W 1015,7 16
07.07.2020 07:00:00 12,1 8,0 29 16 - - W 1015,9 35
07.07.2020 06:00:00 11,6 7,5 29 16 - - W 1015,3 40
07.07.2020 05:00:00 12,2 7,7 32 18 - - WNW 1015,1 35

tt = temperature
td = dewpoint
ff = wind speed
fx = gusts
dd = wind direction
ppp = reduced air pressure
vv = visibility

Next stations